Regional Weather Roundup
Issued by NWS

Home | Current Version | Previous Version | Text Only | Print | Product List | Glossary Off
Versions: 1 2 3 4 5 6 7 8 9 10 11 12 13 14 15 16 17 18 19 20 21 22 23 24 25 26 27 28 29 30 31 32 33 34 35 36 37 38 39 40 41 42 43 44 45 46 47 48 49 50

000
ASUS43 KDTX 240401
RWRMI
MICHIGAN HOURLY REGIONAL WEATHER ROUNDUP
NATIONAL WEATHER SERVICE DETROIT/PONTIAC MI
1200 AM EDT THU APR 24 2014

NOTE: "FAIR" INDICATES FEW OR NO CLOUDS BELOW 12,000 FEET WITH NO
SIGNIFICANT WEATHER AND/OR OBSTRUCTION TO VISIBILITY.

MIZ047>049-052>055-059>063-066>070-074>076-081>083-240500-
SOUTHEAST LOWER MICHIGAN

CITY           SKY/WX    TMP DP  RH WIND       PRES   REMARKS
ADRIAN         CLOUDY    46  30  53 SE6       30.12S
ALMA           MOCLDY    41  30  65 NE6       30.11S
ANN ARBOR      MOCLDY    43  26  51 CALM      30.12S
BAD AXE        CLEAR     30  24  80 CALM      30.14S
CARO           PTCLDY    37  26  66 CALM      30.13S
DETROIT CITY   PTCLDY    41  26  55 E6        30.14S
DETROIT        MOCLDY    45  26  47 CALM      30.13S
FLINT          CLOUDY    42  25  50 E13       30.13R
GROSSE ILE     PTCLDY    43  28  56 CALM      30.12S
HILLSDALE      CLOUDY    48  20  32 E6        30.09F
HOWELL         CLOUDY    43  18  36 CALM      30.10S

CITY           SKY/WX    TMP DP  RH WIND       PRES   REMARKS
JACKSON        CLOUDY    46  20  35 SE6       30.10F
LAMBERTVILLE   CLOUDY    45  34  65 CALM      30.13S
LANSING        CLOUDY    46  29  51 W3        30.11S
LAPEER         FAIR      36  25  65 CALM      30.14R
MASON          CLOUDY    45  22  40 CALM      30.10F
MONROE         MOCLDY    41  36  81 CALM      30.11F
PONTIAC        MOCLDY    42  24  49 E7        30.12R
PORT HOPE        N/A     31  24  75 CALM      30.12S
PORT HURON     MOCLDY    32  28  86 CALM      30.15S
TRI CITIES     PTCLDY    40  24  53 E8        30.13S WCI  34
TROY           MOCLDY    41  15  35 E8        30.15R
SAGINAW HB     PTCLDY    41  27  56 SE6       30.13S
YPSILANTI      MOCLDY    43  30  60 SE7       30.12S
$$
MIZ043>046-050>051-056>058-064>065-071>073-077>080-240500-
SOUTHWEST LOWER MICHIGAN

CITY           SKY/WX    TMP DP  RH WIND       PRES   REMARKS
BATTLE CREEK   CLOUDY    47  30  51 N3        30.10F
BENTON HARBOR  CLOUDY    41  27  57 E3        30.08F
BIG RAPIDS     MOCLDY    38  22  51 CALM      30.10S
COLDWATER      CLOUDY    48  21  34 E5        30.09F
FREMONT        FAIR      40  24  52 CALM      30.09F
HOLLAND        CLOUDY    45  26  47 E3        30.09F
GRAND RAPIDS   CLOUDY    47  26  44 CALM      30.09F
IONIA          FAIR      46  29  51 W3        30.09F
KALAMAZOO      CLOUDY    48  30  49 NE3       30.10F
LUDINGTON      CLOUDY    37  27  68 CALM      30.10S
MARSHALL       CLOUDY    46  29  52 CALM      30.09F
MOUNT PLEASANT MOCLDY    39  24  54 NE5       30.11S
MUSKEGON       CLOUDY    45  26  47 CALM      30.09F
SOUTH HAVEN    CLOUDY    40  29  64 CALM      30.09F
$$
MIZ016>042-240500-
NORTHERN LOWER MICHIGAN

CITY           SKY/WX    TMP DP  RH WIND       PRES   REMARKS
ALPENA         PTCLDY    34  25  69 CALM      30.13S
BEAVER ISLAND  MOCLDY    30  24  78 CALM      30.13F
BELLAIRE       MOCLDY    32  27  80 CALM      30.13F
CADILLAC       MOCLDY    35  20  55 CALM      30.10S
CHARLEVOIX     CLOUDY    33  24  68 E3        30.16F
FRANKFORT      CLOUDY    41  18  39 E5        30.11S
GAYLORD        MOCLDY    34  20  56 CALM      30.11F
GRAYLING       MOCLDY    31  23  72 CALM      30.12F
HARBOR SPRINGS MOCLDY    31  26  82 CALM      30.14S
HOUGHTON LAKE  PTCLDY    34  26  72 CALM      30.12S
MANISTEE       MOCLDY    39  18  41 E8        30.10F WCI  34
OSCODA         PTCLDY    31  21  65 CALM      30.14S
PELLSTON       MOCLDY    29  22  75 CALM      30.14S
ROGERS CITY    PTCLDY    35  23  62 W5        30.14S WCI  31
$$
MIZ007>008-015-240500-
EASTERN UPPER MICHIGAN

CITY           SKY/WX    TMP DP  RH WIND       PRES   REMARKS
KINROSS        PTCLDY    30  28  93 SW3       30.13R
MACKINAC ISLAN PTCLDY    31  24  75 N7        30.12F WCI  24
NEWBERRY       MOCLDY    32  28  84 CALM      30.13S
S. S. MARIE    PTCLDY    35  24  64 CALM      30.12S
MUNISING         N/A     33  25  72 S3        30.11F
$$
MIZ004>006-011>014-085-240500-
CENTRAL UPPER MICHIGAN

CITY           SKY/WX    TMP DP  RH WIND       PRES   REMARKS
MANISTIQUE     MOCLDY    28  25  88 S5        30.13S WCI  23
ESCANABA       CLOUDY    32  21  64 CALM      30.12S
MENOMINEE      CLOUDY    36  23  60 CALM      30.11R
SAWYER-GWINN   CLOUDY    39  22  51 S3        30.10S
$$
MIZ001>003-009>011-084-240500-
WESTERN UPPER MICHIGAN

CITY           SKY/WX    TMP DP  RH WIND       PRES   REMARKS
IRON MOUNTAIN  CLOUDY    40  15  36 SE3       30.08S
HOUGHTON       CLOUDY    37  16  42 E7        30.08S WCI  32
COPPER HARBOR    N/A     37  20  50 SW10      30.08F WCI  30
IRONWOOD       CLOUDY    48  23  37 S8        30.00R
$$

ABBREVIATIONS USED IN REMARKS
   TC - TEMPERATURE IN CELSIUS
  WCI - WIND CHILL INDEX
   HX - HEAT INDEX
  VSB - VISIBILITY




USA.gov is the U.S. government's official web portal to all federal, state and local government web resources and services.